Time,TemperatureF,DewpointF,PressureIn,WindDirection,WindDirectionDegrees,WindSpeedMPH,WindSpeedGustMPH,Humidity,HourlyPrecipIn,Conditions,Clouds,dailyrainin,SolarRadiationWatts/m^2,SoftwareType,DateUTC
2013-11-27 00:00:00,25.2,21.0,30.02,North,-999,3.0,4.0,84,0.00,,,0.00,0.00,VWS V14.01,2013-11-27 07:00:00,
2013-11-27 00:05:00,25.6,21.5,30.03,North,-999,0.0,5.0,84,0.00,,,0.00,0.00,VWS V14.01,2013-11-27 07:05:00,
2013-11-27 00:10:00,25.5,21.1,30.02,North,-999,0.0,0.0,83,0.00,,,0.00,0.00,VWS V14.01,2013-11-27 07:10:00,
2013-11-27 00:15:00,25.6,21.5,30.02,North,-999,0.0,4.0,84,0.00,,,0.00,0.00,VWS V14.01,2013-11-27 07:15:00,
2013-11-27 00:20:00,25.5,21.1,30.02,North,-999,0.0,0.0,83,0.00,,,0.00,0.00,VWS V14.01,2013-11-27 07:20:00,
2013-11-27 00:25:00,25.5,21.1,30.02,North,-999,0.0,0.0,83,0.00,,,0.00,0.00,VWS V14.01,2013-11-27 07:25:00,
2013-11-27 00:30:00,25.3,20.9,30.01,North,-999,0.0,0.0,83,0.00,,,0.00,0.00,VWS V14.01,2013-11-27 07:30:00,
2013-11-27 00:35:00,25.1,20.7,30.01,North,-999,0.0,0.0,83,0.00,,,0.00,0.00,VWS V14.01,2013-11-27 07:35:00,
2013-11-27 00:40:00,25.1,21.0,30.02,North,-999,0.0,0.0,84,0.00,,,0.00,0.00,VWS V14.01,2013-11-27 07:40:00,
2013-11-27 00:45:00,25.2,21.0,30.02,North,-999,0.0,0.0,84,0.00,,,0.00,0.00,VWS V14.01,2013-11-27 07:45:00,
2013-11-27 00:50:00,25.3,21.1,30.02,North,-999,0.0,0.0,84,0.00,,,0.00,0.00,VWS V14.01,2013-11-27 07:50:00,
2013-11-27 00:55:00,25.3,21.1,30.01,North,-999,0.0,0.0,84,0.00,,,0.00,0.00,VWS V14.01,2013-11-27 07:55:00,
2013-11-27 01:00:00,25.3,21.1,30.01,North,-999,0.0,0.0,84,0.00,,,0.00,0.00,VWS V14.01,2013-11-27 08:00:00,
2013-11-27 01:05:00,25.5,21.6,30.01,North,-999,0.0,4.0,85,0.00,,,0.00,0.00,VWS V14.01,2013-11-27 08:05:00,
2013-11-27 01:10:00,25.8,21.6,30.00,North,-999,0.0,0.0,84,0.00,,,0.00,0.00,VWS V14.01,2013-11-27 08:10:00,
2013-11-27 01:15:00,26.0,21.8,30.00,North,-999,0.0,0.0,84,0.00,,,0.00,0.00,VWS V14.01,2013-11-27 08:15:00,
2013-11-27 01:20:00,26.1,21.9,30.01,North,-999,0.0,0.0,84,0.00,,,0.00,0.00,VWS V14.01,2013-11-27 08:20:00,
2013-11-27 01:25:00,26.5,22.0,30.01,North,-999,0.0,3.0,83,0.00,,,0.00,0.00,VWS V14.01,2013-11-27 08:25:00,
2013-11-27 01:30:00,26.6,22.1,30.00,North,-999,0.0,0.0,83,0.00,,,0.00,0.00,VWS V14.01,2013-11-27 08:30:00,
2013-11-27 01:35:00,26.6,22.1,30.00,North,-999,0.0,0.0,83,0.00,,,0.00,0.00,VWS V14.01,2013-11-27 08:35:00,
2013-11-27 01:40:00,26.6,22.1,30.00,North,-999,0.0,0.0,83,0.00,,,0.00,0.00,VWS V14.01,2013-11-27 08:40:00,
2013-11-27 01:45:00,26.6,22.1,30.00,North,-999,0.0,0.0,83,0.00,,,0.00,0.00,VWS V14.01,2013-11-27 08:45:00,
2013-11-27 01:50:00,26.5,22.0,30.00,North,-999,0.0,0.0,83,0.00,,,0.00,0.00,VWS V14.01,2013-11-27 08:50:00,
2013-11-27 01:55:00,26.3,21.9,30.00,North,-999,0.0,2.0,83,0.00,,,0.00,0.00,VWS V14.01,2013-11-27 08:55:00,
2013-11-27 02:00:00,26.3,21.9,30.00,North,-999,0.0,0.0,83,0.00,,,0.00,0.00,VWS V14.01,2013-11-27 09:00:00,
2013-11-27 02:05:00,26.3,21.9,30.00,North,-999,3.0,3.0,83,0.00,,,0.00,0.00,VWS V14.01,2013-11-27 09:05:00,
2013-11-27 02:10:00,26.5,22.3,30.00,North,-999,3.0,5.0,84,0.00,,,0.00,0.00,VWS V14.01,2013-11-27 09:10:00,
2013-11-27 02:15:00,27.1,22.9,30.00,North,-999,0.0,6.0,84,0.00,,,0.00,0.00,VWS V14.01,2013-11-27 09:15:00,
2013-11-27 02:20:00,27.4,22.9,30.00,North,-999,0.0,0.0,83,0.00,,,0.00,0.00,VWS V14.01,2013-11-27 09:20:00,
2013-11-27 02:25:00,27.4,22.6,30.00,North,-999,0.0,0.0,82,0.00,,,0.00,0.00,VWS V14.01,2013-11-27 09:25:00,
2013-11-27 02:30:00,27.2,22.7,30.00,North,-999,0.0,0.0,83,0.00,,,0.00,0.00,VWS V14.01,2013-11-27 09:30:00,
2013-11-27 02:35:00,27.2,22.7,29.99,North,-999,0.0,0.0,83,0.00,,,0.00,0.00,VWS V14.01,2013-11-27 09:35:00,
2013-11-27 02:40:00,27.2,22.7,30.00,North,-999,0.0,0.0,83,0.00,,,0.00,0.00,VWS V14.01,2013-11-27 09:40:00,
2013-11-27 02:45:00,27.0,22.5,29.99,North,-999,0.0,0.0,83,0.00,,,0.00,0.00,VWS V14.01,2013-11-27 09:45:00,
2013-11-27 02:50:00,27.0,22.8,29.99,North,-999,0.0,0.0,84,0.00,,,0.00,0.00,VWS V14.01,2013-11-27 09:50:00,
2013-11-27 02:55:00,26.9,22.7,29.99,North,-999,0.0,0.0,84,0.00,,,0.00,0.00,VWS V14.01,2013-11-27 09:55:00,
2013-11-27 03:00:00,27.1,22.9,29.99,North,-999,0.0,4.0,84,0.00,,,0.00,0.00,VWS V14.01,2013-11-27 10:00:00,
2013-11-27 03:05:00,27.1,22.9,29.99,North,-999,0.0,5.0,84,0.00,,,0.00,0.00,VWS V14.01,2013-11-27 10:05:00,
2013-11-27 03:10:00,27.1,22.9,29.99,North,-999,0.0,0.0,84,0.00,,,0.00,0.00,VWS V14.01,2013-11-27 10:10:00,
2013-11-27 03:15:00,27.2,23.0,29.99,North,-999,0.0,0.0,84,0.00,,,0.00,0.00,VWS V14.01,2013-11-27 10:15:00,
2013-11-27 03:20:00,27.4,23.2,29.99,North,-999,0.0,0.0,84,0.00,,,0.00,0.00,VWS V14.01,2013-11-27 10:20:00,
2013-11-27 03:25:00,27.4,23.2,29.99,North,-999,0.0,0.0,84,0.00,,,0.00,0.00,VWS V14.01,2013-11-27 10:25:00,
2013-11-27 03:30:00,27.3,23.1,29.99,North,-999,0.0,0.0,84,0.00,,,0.00,0.00,VWS V14.01,2013-11-27 10:30:00,
2013-11-27 03:35:00,27.2,23.0,29.99,North,-999,0.0,0.0,84,0.00,,,0.00,0.00,VWS V14.01,2013-11-27 10:35:00,
2013-11-27 03:40:00,27.2,23.0,29.99,North,-999,0.0,0.0,84,0.00,,,0.00,0.00,VWS V14.01,2013-11-27 10:40:00,
2013-11-27 03:45:00,27.3,23.4,29.98,North,-999,0.0,0.0,85,0.00,,,0.00,0.00,VWS V14.01,2013-11-27 10:45:00,
2013-11-27 03:50:00,27.1,22.9,29.98,North,-999,0.0,4.0,84,0.00,,,0.00,0.00,VWS V14.01,2013-11-27 10:50:00,
2013-11-27 03:55:00,26.9,23.0,29.99,North,-999,0.0,4.0,85,0.00,,,0.00,0.00,VWS V14.01,2013-11-27 10:55:00,
2013-11-27 04:00:00,26.9,23.0,29.99,North,-999,0.0,0.0,85,0.00,,,0.00,0.00,VWS V14.01,2013-11-27 11:00:00,
2013-11-27 04:05:00,26.9,23.0,29.98,North,-999,0.0,0.0,85,0.00,,,0.00,0.00,VWS V14.01,2013-11-27 11:05:00,
2013-11-27 04:10:00,27.1,23.2,29.98,North,-999,0.0,0.0,85,0.00,,,0.00,0.00,VWS V14.01,2013-11-27 11:10:00,
2013-11-27 04:15:00,27.1,23.2,29.97,North,-999,0.0,3.0,85,0.00,,,0.00,0.00,VWS V14.01,2013-11-27 11:15:00,
2013-11-27 04:20:00,27.1,22.9,29.97,North,-999,0.0,0.0,84,0.00,,,0.00,0.00,VWS V14.01,2013-11-27 11:20:00,
2013-11-27 04:25:00,26.9,23.0,29.97,North,-999,0.0,0.0,85,0.00,,,0.00,0.00,VWS V14.01,2013-11-27 11:25:00,
2013-11-27 04:30:00,26.7,22.8,29.97,North,-999,3.0,4.0,85,0.00,,,0.00,0.00,VWS V14.01,2013-11-27 11:30:00,
2013-11-27 04:35:00,26.7,23.1,29.97,North,-999,0.0,4.0,86,0.00,,,0.00,0.00,VWS V14.01,2013-11-27 11:35:00,
2013-11-27 04:40:00,26.4,22.2,29.98,North,-999,0.0,0.0,84,0.00,,,0.00,0.00,VWS V14.01,2013-11-27 11:40:00,
2013-11-27 04:45:00,26.3,22.4,29.97,North,-999,0.0,0.0,85,0.00,,,0.00,0.00,VWS V14.01,2013-11-27 11:45:00,
2013-11-27 04:50:00,26.5,23.2,29.98,North,-999,0.0,0.0,87,0.00,,,0.00,0.00,VWS V14.01,2013-11-27 11:50:00,
2013-11-27 04:55:00,26.9,23.3,29.98,North,-999,0.0,4.0,86,0.00,,,0.00,0.00,VWS V14.01,2013-11-27 11:55:00,
2013-11-27 05:00:00,27.0,23.1,29.97,North,-999,0.0,0.0,85,0.00,,,0.00,0.00,VWS V14.01,2013-11-27 12:00:00,
2013-11-27 05:05:00,27.0,23.1,29.97,North,-999,0.0,0.0,85,0.00,,,0.00,0.00,VWS V14.01,2013-11-27 12:05:00,
2013-11-27 05:10:00,26.9,23.0,29.97,North,-999,0.0,0.0,85,0.00,,,0.00,0.00,VWS V14.01,2013-11-27 12:10:00,
2013-11-27 05:15:00,27.1,23.5,29.97,North,-999,0.0,0.0,86,0.00,,,0.00,0.00,VWS V14.01,2013-11-27 12:15:00,
2013-11-27 05:20:00,27.1,23.2,29.97,North,-999,0.0,0.0,85,0.00,,,0.00,0.00,VWS V14.01,2013-11-27 12:20:00,
2013-11-27 05:25:00,27.1,23.2,29.97,North,-999,0.0,4.0,85,0.00,,,0.00,0.00,VWS V14.01,2013-11-27 12:25:00,
2013-11-27 05:30:00,27.2,23.3,29.97,North,-999,0.0,4.0,85,0.00,,,0.00,0.00,VWS V14.01,2013-11-27 12:30:00,
2013-11-27 05:35:00,27.3,23.4,29.97,North,-999,0.0,4.0,85,0.00,,,0.00,0.00,VWS V14.01,2013-11-27 12:35:00,
2013-11-27 05:40:00,27.2,23.3,29.97,North,-999,6.0,7.0,85,0.00,,,0.00,0.00,VWS V14.01,2013-11-27 12:40:00,
2013-11-27 05:45:00,27.0,23.1,29.97,North,-999,0.0,7.0,85,0.00,,,0.00,0.00,VWS V14.01,2013-11-27 12:45:00,
2013-11-27 05:50:00,27.0,23.1,29.97,North,-999,1.0,1.0,85,0.00,,,0.00,0.00,VWS V14.01,2013-11-27 12:50:00,
2013-11-27 05:55:00,27.0,23.1,29.97,North,-999,4.0,6.0,85,0.00,,,0.00,0.00,VWS V14.01,2013-11-27 12:55:00,
2013-11-27 06:00:00,26.7,22.5,29.97,North,-999,3.0,6.0,84,0.00,,,0.00,0.00,VWS V14.01,2013-11-27 13:00:00,
2013-11-27 06:05:00,26.6,22.7,29.97,North,-999,0.0,6.0,85,0.00,,,0.00,0.00,VWS V14.01,2013-11-27 13:05:00,
2013-11-27 06:10:00,26.6,22.7,29.97,North,-999,0.0,5.0,85,0.00,,,0.00,0.00,VWS V14.01,2013-11-27 13:10:00,
2013-11-27 06:15:00,26.5,22.6,29.97,North,-999,0.0,6.0,85,0.00,,,0.00,0.00,VWS V14.01,2013-11-27 13:15:00,
2013-11-27 06:20:00,26.4,22.5,29.97,North,-999,0.0,3.0,85,0.00,,,0.00,0.00,VWS V14.01,2013-11-27 13:20:00,
2013-11-27 06:25:00,26.3,22.4,29.96,North,-999,0.0,3.0,85,0.00,,,0.00,0.00,VWS V14.01,2013-11-27 13:25:00,
2013-11-27 06:30:00,26.3,22.4,29.96,North,-999,6.0,6.0,85,0.00,,,0.00,0.00,VWS V14.01,2013-11-27 13:30:00,
2013-11-27 06:35:00,26.1,22.2,29.97,North,-999,0.0,7.0,85,0.00,,,0.00,0.00,VWS V14.01,2013-11-27 13:35:00,
2013-11-27 06:40:00,26.0,22.4,29.97,North,-999,4.0,5.0,86,0.00,,,0.00,0.00,VWS V14.01,2013-11-27 13:40:00,
2013-11-27 06:45:00,26.0,22.4,29.97,North,-999,0.0,5.0,86,0.00,,,0.00,0.00,VWS V14.01,2013-11-27 13:45:00,
2013-11-27 06:49:00,26.1,22.5,29.97,North,-999,0.0,0.0,86,0.00,,,0.00,0.00,VWS V14.01,2013-11-27 13:49:00,
2013-11-27 06:54:00,26.1,22.5,29.97,North,-999,3.0,4.0,86,0.00,,,0.00,0.00,VWS V14.01,2013-11-27 13:54:00,
2013-11-27 06:59:00,26.0,22.4,29.97,North,-999,0.0,5.0,86,0.00,,,0.00,0.00,VWS V14.01,2013-11-27 13:59:00,
2013-11-27 07:04:00,25.7,22.1,29.97,North,-999,0.0,5.0,86,0.00,,,0.00,0.00,VWS V14.01,2013-11-27 14:04:00,
2013-11-27 07:09:00,25.7,22.4,29.97,North,-999,0.0,0.0,87,0.00,,,0.00,0.00,VWS V14.01,2013-11-27 14:09:00,
2013-11-27 07:14:00,25.5,21.9,29.97,North,-999,0.0,0.0,86,0.00,,,0.00,0.00,VWS V14.01,2013-11-27 14:14:00,
2013-11-27 07:19:00,25.5,22.2,29.97,North,-999,0.0,0.0,87,0.00,,,0.00,0.00,VWS V14.01,2013-11-27 14:19:00,
2013-11-27 07:24:00,25.4,22.1,29.97,North,-999,0.0,0.0,87,0.00,,,0.00,0.00,VWS V14.01,2013-11-27 14:24:00,
2013-11-27 07:29:00,25.2,21.6,29.97,North,-999,0.0,0.0,86,0.00,,,0.00,0.00,VWS V14.01,2013-11-27 14:29:00,
2013-11-27 07:34:00,25.1,21.8,29.97,North,-999,0.0,0.0,87,0.00,,,0.00,5.00,VWS V14.01,2013-11-27 14:34:00,
2013-11-27 07:39:00,25.1,21.8,29.97,North,-999,4.0,5.0,87,0.00,,,0.00,11.00,VWS V14.01,2013-11-27 14:39:00,
2013-11-27 07:44:00,25.3,22.0,29.97,North,-999,0.0,5.0,87,0.00,,,0.00,16.00,VWS V14.01,2013-11-27 14:44:00,
2013-11-27 07:49:00,25.5,22.2,29.97,North,-999,0.0,6.0,87,0.00,,,0.00,21.00,VWS V14.01,2013-11-27 14:49:00,
2013-11-27 07:54:00,25.5,22.2,29.97,North,-999,8.0,9.0,87,0.00,,,0.00,26.00,VWS V14.01,2013-11-27 14:54:00,
2013-11-27 07:59:00,26.3,23.0,29.98,North,-999,3.0,4.0,87,0.00,,,0.00,32.00,VWS V14.01,2013-11-27 14:59:00,
2013-11-27 08:04:00,26.2,22.6,29.98,North,-999,0.0,4.0,86,0.00,,,0.00,37.00,VWS V14.01,2013-11-27 15:04:00,
2013-11-27 08:09:00,26.6,23.0,29.97,North,-999,0.0,0.0,86,0.00,,,0.00,42.00,VWS V14.01,2013-11-27 15:09:00,
2013-11-27 08:14:00,26.6,23.0,29.97,North,-999,0.0,0.0,86,0.00,,,0.00,51.00,VWS V14.01,2013-11-27 15:14:00,
2013-11-27 08:19:00,26.6,22.7,29.98,North,-999,0.0,0.0,85,0.00,,,0.00,60.00,VWS V14.01,2013-11-27 15:19:00,
2013-11-27 08:24:00,26.4,22.5,29.98,North,-999,3.0,5.0,85,0.00,,,0.00,53.00,VWS V14.01,2013-11-27 15:24:00,
2013-11-27 08:29:00,26.7,23.1,29.98,North,-999,2.0,5.0,86,0.00,,,0.00,53.00,VWS V14.01,2013-11-27 15:29:00,
2013-11-27 08:34:00,27.0,23.4,29.97,North,-999,1.0,5.0,86,0.00,,,0.00,51.00,VWS V14.01,2013-11-27 15:34:00,
2013-11-27 08:39:00,27.2,23.3,29.98,North,-999,0.0,0.0,85,0.00,,,0.00,51.00,VWS V14.01,2013-11-27 15:39:00,
2013-11-27 08:44:00,27.5,23.6,29.98,North,-999,0.0,0.0,85,0.00,,,0.00,53.00,VWS V14.01,2013-11-27 15:44:00,
2013-11-27 08:49:00,27.8,23.6,29.98,North,-999,0.0,0.0,84,0.00,,,0.00,62.00,VWS V14.01,2013-11-27 15:49:00,
2013-11-27 08:54:00,27.8,23.3,29.98,North,-999,0.0,0.0,83,0.00,,,0.00,74.00,VWS V14.01,2013-11-27 15:54:00,
2013-11-27 08:59:00,27.7,23.5,29.98,North,-999,0.0,0.0,84,0.00,,,0.00,111.00,VWS V14.01,2013-11-27 15:59:00,
2013-11-27 09:04:00,27.8,23.6,29.99,North,-999,0.0,0.0,84,0.00,,,0.00,123.00,VWS V14.01,2013-11-27 16:04:00,
2013-11-27 09:09:00,27.9,23.7,29.99,North,-999,0.0,0.0,84,0.00,,,0.00,139.00,VWS V14.01,2013-11-27 16:09:00,
2013-11-27 09:14:00,28.3,24.1,29.99,North,-999,0.0,0.0,84,0.00,,,0.00,163.00,VWS V14.01,2013-11-27 16:14:00,
2013-11-27 09:19:00,28.7,24.2,29.99,North,-999,0.0,0.0,83,0.00,,,0.00,160.00,VWS V14.01,2013-11-27 16:19:00,
2013-11-27 09:24:00,29.2,24.7,29.99,North,-999,3.0,4.0,83,0.00,,,0.00,199.00,VWS V14.01,2013-11-27 16:24:00,
2013-11-27 09:29:00,29.8,25.0,29.99,North,-999,4.0,5.0,82,0.00,,,0.00,223.00,VWS V14.01,2013-11-27 16:29:00,
2013-11-27 09:34:00,30.4,25.3,29.99,North,-999,0.0,5.0,81,0.00,,,0.00,227.00,VWS V14.01,2013-11-27 16:34:00,
2013-11-27 09:39:00,30.7,25.3,29.98,North,-999,0.0,0.0,80,0.00,,,0.00,246.00,VWS V14.01,2013-11-27 16:39:00,
2013-11-27 09:44:00,31.1,25.4,29.98,North,-999,2.0,3.0,79,0.00,,,0.00,260.00,VWS V14.01,2013-11-27 16:44:00,
2013-11-27 09:49:00,31.5,25.4,29.98,North,-999,5.0,6.0,78,0.00,,,0.00,283.00,VWS V14.01,2013-11-27 16:49:00,
2013-11-27 09:54:00,32.0,25.6,29.98,North,-999,2.0,6.0,77,0.00,,,0.00,297.00,VWS V14.01,2013-11-27 16:54:00,
2013-11-27 09:59:00,32.2,25.8,29.99,North,-999,3.0,5.0,77,0.00,,,0.00,283.00,VWS V14.01,2013-11-27 16:59:00,
2013-11-27 10:04:00,32.4,26.0,29.99,North,-999,2.0,6.0,77,0.00,,,0.00,299.00,VWS V14.01,2013-11-27 17:04:00,
2013-11-27 10:09:00,32.8,26.1,29.99,North,-999,1.0,4.0,76,0.00,,,0.00,315.00,VWS V14.01,2013-11-27 17:09:00,
2013-11-27 10:14:00,33.2,26.1,29.98,North,-999,0.0,4.0,75,0.00,,,0.00,339.00,VWS V14.01,2013-11-27 17:14:00,
2013-11-27 10:19:00,33.8,26.7,29.98,North,-999,0.0,0.0,75,0.00,,,0.00,320.00,VWS V14.01,2013-11-27 17:19:00,
2013-11-27 10:24:00,34.1,26.4,29.99,North,-999,3.0,4.0,73,0.00,,,0.00,338.00,VWS V14.01,2013-11-27 17:24:00,
2013-11-27 10:29:00,34.3,26.6,29.98,North,-999,4.0,6.0,73,0.00,,,0.00,336.00,VWS V14.01,2013-11-27 17:29:00,
2013-11-27 10:34:00,34.6,26.5,29.98,North,-999,2.0,6.0,72,0.00,,,0.00,369.00,VWS V14.01,2013-11-27 17:34:00,
2013-11-27 10:39:00,34.8,27.4,29.98,North,-999,3.0,4.0,74,0.00,,,0.00,374.00,VWS V14.01,2013-11-27 17:39:00,
2013-11-27 10:44:00,35.3,27.9,29.98,North,-999,0.0,4.0,74,0.00,,,0.00,381.00,VWS V14.01,2013-11-27 17:44:00,
2013-11-27 10:49:00,35.6,27.5,29.98,North,-999,3.0,4.0,72,0.00,,,0.00,380.00,VWS V14.01,2013-11-27 17:49:00,
2013-11-27 10:54:00,36.0,27.5,29.97,North,-999,4.0,9.0,71,0.00,,,0.00,392.00,VWS V14.01,2013-11-27 17:54:00,
2013-11-27 10:59:00,36.2,27.7,29.98,North,-999,3.0,4.0,71,0.00,,,0.00,378.00,VWS V14.01,2013-11-27 17:59:00,
2013-11-27 11:04:00,36.6,28.1,29.97,North,-999,2.0,6.0,71,0.00,,,0.00,406.00,VWS V14.01,2013-11-27 18:04:00,
2013-11-27 11:09:00,36.5,27.7,29.97,North,-999,3.0,5.0,70,0.00,,,0.00,415.00,VWS V14.01,2013-11-27 18:09:00,
2013-11-27 11:14:00,36.6,27.8,29.97,North,-999,2.0,5.0,70,0.00,,,0.00,417.00,VWS V14.01,2013-11-27 18:14:00,
2013-11-27 11:19:00,36.8,27.2,29.97,North,-999,0.0,4.0,68,0.00,,,0.00,418.00,VWS V14.01,2013-11-27 18:19:00,
2013-11-27 11:24:00,37.1,27.5,29.97,North,-999,0.0,5.0,68,0.00,,,0.00,424.00,VWS V14.01,2013-11-27 18:24:00,
2013-11-27 11:29:00,37.4,27.8,29.97,North,-999,0.0,3.0,68,0.00,,,0.00,425.00,VWS V14.01,2013-11-27 18:29:00,
2013-11-27 11:34:00,37.7,28.1,29.97,North,-999,0.0,3.0,68,0.00,,,0.00,434.00,VWS V14.01,2013-11-27 18:34:00,
2013-11-27 11:39:00,38.0,28.4,29.97,North,-999,0.0,0.0,68,0.00,,,0.00,436.00,VWS V14.01,2013-11-27 18:39:00,
2013-11-27 11:44:00,38.2,28.6,29.97,North,-999,0.0,0.0,68,0.00,,,0.00,434.00,VWS V14.01,2013-11-27 18:44:00,
2013-11-27 11:49:00,38.8,28.8,29.97,North,-999,0.0,0.0,67,0.00,,,0.00,427.00,VWS V14.01,2013-11-27 18:49:00,
2013-11-27 11:54:00,39.4,29.0,29.96,North,-999,0.0,0.0,66,0.00,,,0.00,411.00,VWS V14.01,2013-11-27 18:54:00,
2013-11-27 11:56:00,39.8,29.0,29.96,North,-999,0.0,0.0,65,0.00,,,0.00,424.00,VWS V14.01,2013-11-27 18:56:00,
2013-11-27 12:01:00,40.6,29.4,29.96,North,-999,0.0,0.0,64,0.00,,,0.00,420.00,VWS V14.01,2013-11-27 19:01:00,
2013-11-27 12:06:00,41.1,29.1,29.96,North,-999,0.0,0.0,62,0.00,,,0.00,378.00,VWS V14.01,2013-11-27 19:06:00,
2013-11-27 12:11:00,41.3,28.5,29.96,North,-999,0.0,0.0,60,0.00,,,0.00,383.00,VWS V14.01,2013-11-27 19:11:00,
2013-11-27 12:16:00,41.5,29.1,29.96,North,-999,0.0,0.0,61,0.00,,,0.00,396.00,VWS V14.01,2013-11-27 19:16:00,
2013-11-27 12:21:00,41.8,29.4,29.96,North,-999,0.0,0.0,61,0.00,,,0.00,401.00,VWS V14.01,2013-11-27 19:21:00,
2013-11-27 12:26:00,42.3,29.0,29.95,North,-999,0.0,0.0,59,0.00,,,0.00,392.00,VWS V14.01,2013-11-27 19:26:00,
2013-11-27 12:31:00,42.3,28.6,29.95,North,-999,0.0,0.0,58,0.00,,,0.00,387.00,VWS V14.01,2013-11-27 19:31:00,
2013-11-27 12:36:00,42.2,28.9,29.95,North,-999,0.0,0.0,59,0.00,,,0.00,387.00,VWS V14.01,2013-11-27 19:36:00,
2013-11-27 12:41:00,42.0,28.3,29.95,North,-999,0.0,0.0,58,0.00,,,0.00,413.00,VWS V14.01,2013-11-27 19:41:00,
2013-11-27 12:46:00,41.9,29.0,29.95,North,-999,0.0,0.0,60,0.00,,,0.00,413.00,VWS V14.01,2013-11-27 19:46:00,
2013-11-27 12:51:00,41.9,29.0,29.95,North,-999,0.0,0.0,60,0.00,,,0.00,415.00,VWS V14.01,2013-11-27 19:51:00,
2013-11-27 12:56:00,42.1,28.8,29.95,North,-999,2.0,3.0,59,0.00,,,0.00,401.00,VWS V14.01,2013-11-27 19:56:00,
2013-11-27 13:01:00,42.3,29.4,29.94,North,-999,2.0,4.0,60,0.00,,,0.00,397.00,VWS V14.01,2013-11-27 20:01:00,
2013-11-27 13:06:00,42.2,28.9,29.95,North,-999,0.0,4.0,59,0.00,,,0.00,394.00,VWS V14.01,2013-11-27 20:06:00,
2013-11-27 13:11:00,42.4,29.1,29.94,North,-999,0.0,0.0,59,0.00,,,0.00,392.00,VWS V14.01,2013-11-27 20:11:00,
2013-11-27 13:16:00,42.3,28.6,29.95,North,-999,1.0,4.0,58,0.00,,,0.00,360.00,VWS V14.01,2013-11-27 20:16:00,
2013-11-27 13:21:00,42.5,28.4,29.95,North,-999,1.0,4.0,57,0.00,,,0.00,357.00,VWS V14.01,2013-11-27 20:21:00,
2013-11-27 13:26:00,42.7,28.5,29.95,North,-999,1.0,4.0,57,0.00,,,0.00,352.00,VWS V14.01,2013-11-27 20:26:00,
2013-11-27 13:30:00,42.8,29.1,29.95,North,-999,2.0,3.0,58,0.00,,,0.00,348.00,VWS V14.01,2013-11-27 20:30:00,
2013-11-27 13:35:00,42.9,28.7,29.94,North,-999,2.0,4.0,57,0.00,,,0.00,353.00,VWS V14.01,2013-11-27 20:35:00,
2013-11-27 13:40:00,42.8,28.6,29.94,North,-999,0.0,5.0,57,0.00,,,0.00,338.00,VWS V14.01,2013-11-27 20:40:00,
2013-11-27 13:45:00,42.9,29.2,29.94,North,-999,3.0,5.0,58,0.00,,,0.00,330.00,VWS V14.01,2013-11-27 20:45:00,
2013-11-27 13:50:00,43.0,29.2,29.95,North,-999,2.0,4.0,58,0.00,,,0.00,320.00,VWS V14.01,2013-11-27 20:50:00,
2013-11-27 13:55:00,43.3,29.1,29.94,North,-999,4.0,5.0,57,0.00,,,0.00,309.00,VWS V14.01,2013-11-27 20:55:00,
2013-11-27 14:00:00,43.4,29.2,29.94,North,-999,1.0,3.0,57,0.00,,,0.00,302.00,VWS V14.01,2013-11-27 21:00:00,
2013-11-27 14:05:00,43.6,29.4,29.95,North,-999,0.0,3.0,57,0.00,,,0.00,308.00,VWS V14.01,2013-11-27 21:05:00,
2013-11-27 14:10:00,43.7,29.0,29.94,North,-999,0.0,0.0,56,0.00,,,0.00,271.00,VWS V14.01,2013-11-27 21:10:00,
2013-11-27 14:15:00,43.8,29.1,29.94,North,-999,0.0,0.0,56,0.00,,,0.00,264.00,VWS V14.01,2013-11-27 21:15:00,
2013-11-27 14:20:00,44.1,29.4,29.94,North,-999,0.0,0.0,56,0.00,,,0.00,234.00,VWS V14.01,2013-11-27 21:20:00,
2013-11-27 14:25:00,44.1,29.0,29.94,North,-999,0.0,3.0,55,0.00,,,0.00,216.00,VWS V14.01,2013-11-27 21:25:00,
2013-11-27 14:30:00,44.1,29.4,29.94,North,-999,0.0,3.0,56,0.00,,,0.00,193.00,VWS V14.01,2013-11-27 21:30:00,
2013-11-27 14:35:00,44.3,29.6,29.94,North,-999,0.0,3.0,56,0.00,,,0.00,139.00,VWS V14.01,2013-11-27 21:35:00,
2013-11-27 14:40:00,44.1,29.0,29.94,North,-999,0.0,0.0,55,0.00,,,0.00,128.00,VWS V14.01,2013-11-27 21:40:00,
2013-11-27 14:45:00,44.1,29.4,29.94,North,-999,0.0,0.0,56,0.00,,,0.00,153.00,VWS V14.01,2013-11-27 21:45:00,
2013-11-27 14:50:00,44.2,29.1,29.94,North,-999,0.0,0.0,55,0.00,,,0.00,178.00,VWS V14.01,2013-11-27 21:50:00,
2013-11-27 14:55:00,44.6,29.5,29.94,North,-999,0.0,0.0,55,0.00,,,0.00,183.00,VWS V14.01,2013-11-27 21:55:00,
2013-11-27 15:00:00,44.7,29.5,29.94,North,-999,0.0,0.0,55,0.00,,,0.00,165.00,VWS V14.01,2013-11-27 22:00:00,
2013-11-27 15:05:00,44.7,30.0,29.94,North,-999,0.0,0.0,56,0.00,,,0.00,153.00,VWS V14.01,2013-11-27 22:05:00,
2013-11-27 15:10:00,44.9,30.2,29.94,North,-999,0.0,0.0,56,0.00,,,0.00,107.00,VWS V14.01,2013-11-27 22:10:00,
2013-11-27 15:15:00,45.4,30.2,29.94,North,-999,0.0,0.0,55,0.00,,,0.00,113.00,VWS V14.01,2013-11-27 22:15:00,
2013-11-27 15:20:00,45.3,30.1,29.95,North,-999,0.0,0.0,55,0.00,,,0.00,93.00,VWS V14.01,2013-11-27 22:20:00,
2013-11-27 15:25:00,45.0,29.8,29.95,North,-999,0.0,0.0,55,0.00,,,0.00,90.00,VWS V14.01,2013-11-27 22:25:00,
2013-11-27 15:30:00,44.9,30.2,29.95,North,-999,0.0,0.0,56,0.00,,,0.00,83.00,VWS V14.01,2013-11-27 22:30:00,
2013-11-27 15:35:00,45.0,29.8,29.95,North,-999,0.0,0.0,55,0.00,,,0.00,72.00,VWS V14.01,2013-11-27 22:35:00,
2013-11-27 15:40:00,45.0,29.8,29.95,North,-999,0.0,0.0,55,0.00,,,0.00,70.00,VWS V14.01,2013-11-27 22:40:00,
2013-11-27 15:45:00,44.4,29.7,29.95,North,-999,0.0,0.0,56,0.00,,,0.00,56.00,VWS V14.01,2013-11-27 22:45:00,
2013-11-27 15:50:00,43.9,30.1,29.95,North,-999,0.0,0.0,58,0.00,,,0.00,47.00,VWS V14.01,2013-11-27 22:50:00,
2013-11-27 15:55:00,43.7,30.7,29.95,North,-999,0.0,0.0,60,0.00,,,0.00,44.00,VWS V14.01,2013-11-27 22:55:00,
2013-11-27 16:00:00,43.9,30.5,29.95,North,-999,0.0,0.0,59,0.00,,,0.00,37.00,VWS V14.01,2013-11-27 23:00:00,
2013-11-27 16:05:00,43.8,30.0,29.95,North,-999,0.0,0.0,58,0.00,,,0.00,26.00,VWS V14.01,2013-11-27 23:05:00,
2013-11-27 16:10:00,43.1,29.8,29.95,North,-999,0.0,0.0,59,0.00,,,0.00,21.00,VWS V14.01,2013-11-27 23:10:00,
2013-11-27 16:15:00,42.0,29.5,29.96,North,-999,4.0,5.0,61,0.00,,,0.00,16.00,VWS V14.01,2013-11-27 23:15:00,
2013-11-27 16:20:00,41.0,29.0,29.96,North,-999,3.0,5.0,62,0.00,,,0.00,12.00,VWS V14.01,2013-11-27 23:20:00,
2013-11-27 16:25:00,40.4,29.2,29.95,North,-999,0.0,5.0,64,0.00,,,0.00,11.00,VWS V14.01,2013-11-27 23:25:00,
2013-11-27 16:30:00,39.8,29.0,29.95,North,-999,0.0,0.0,65,0.00,,,0.00,7.00,VWS V14.01,2013-11-27 23:30:00,
2013-11-27 16:35:00,39.7,29.3,29.96,North,-999,0.0,0.0,66,0.00,,,0.00,5.00,VWS V14.01,2013-11-27 23:35:00,
2013-11-27 16:40:00,39.0,28.6,29.96,North,-999,0.0,0.0,66,0.00,,,0.00,0.00,VWS V14.01,2013-11-27 23:40:00,
2013-11-27 16:45:00,38.2,28.6,29.96,North,-999,0.0,0.0,68,0.00,,,0.00,0.00,VWS V14.01,2013-11-27 23:45:00,
2013-11-27 16:50:00,38.4,28.4,29.95,North,-999,0.0,0.0,67,0.00,,,0.00,0.00,VWS V14.01,2013-11-27 23:50:00,
2013-11-27 16:55:00,38.2,28.2,29.96,North,-999,0.0,0.0,67,0.00,,,0.00,0.00,VWS V14.01,2013-11-27 23:55:00,
2013-11-27 17:00:00,37.9,27.9,29.96,North,-999,3.0,4.0,67,0.00,,,0.00,0.00,VWS V14.01,2013-11-28 00:00:00,
2013-11-27 17:05:00,37.7,28.1,29.96,North,-999,0.0,4.0,68,0.00,,,0.00,0.00,VWS V14.01,2013-11-28 00:05:00,
2013-11-27 17:10:00,37.7,28.1,29.96,North,-999,0.0,0.0,68,0.00,,,0.00,0.00,VWS V14.01,2013-11-28 00:10:00,
2013-11-27 17:15:00,37.4,27.8,29.96,North,-999,0.0,0.0,68,0.00,,,0.00,0.00,VWS V14.01,2013-11-28 00:15:00,
2013-11-27 17:20:00,37.1,28.2,29.96,North,-999,0.0,0.0,70,0.00,,,0.00,0.00,VWS V14.01,2013-11-28 00:20:00,
2013-11-27 17:25:00,37.0,28.5,29.96,North,-999,0.0,0.0,71,0.00,,,0.00,0.00,VWS V14.01,2013-11-28 00:25:00,
2013-11-27 17:30:00,37.1,28.6,29.96,North,-999,0.0,0.0,71,0.00,,,0.00,0.00,VWS V14.01,2013-11-28 00:30:00,
2013-11-27 17:35:00,37.4,28.9,29.96,North,-999,0.0,0.0,71,0.00,,,0.00,0.00,VWS V14.01,2013-11-28 00:35:00,
2013-11-27 17:40:00,37.9,28.6,29.96,North,-999,0.0,0.0,69,0.00,,,0.00,0.00,VWS V14.01,2013-11-28 00:40:00,
2013-11-27 17:45:00,37.7,28.1,29.96,North,-999,0.0,0.0,68,0.00,,,0.00,0.00,VWS V14.01,2013-11-28 00:45:00,
2013-11-27 17:50:00,37.3,28.4,29.96,North,-999,0.0,0.0,70,0.00,,,0.00,0.00,VWS V14.01,2013-11-28 00:50:00,
2013-11-27 17:55:00,35.9,27.1,29.96,North,-999,4.0,6.0,70,0.00,,,0.00,0.00,VWS V14.01,2013-11-28 00:55:00,
2013-11-27 18:00:00,34.5,26.8,29.96,North,-999,4.0,5.0,73,0.00,,,0.00,0.00,VWS V14.01,2013-11-28 01:00:00,
2013-11-27 18:05:00,34.2,27.4,29.97,North,-999,2.0,5.0,76,0.00,,,0.00,0.00,VWS V14.01,2013-11-28 01:05:00,
2013-11-27 18:10:00,34.3,27.5,29.97,North,-999,0.0,4.0,76,0.00,,,0.00,0.00,VWS V14.01,2013-11-28 01:10:00,
2013-11-27 18:15:00,34.6,27.8,29.97,North,-999,0.0,4.0,76,0.00,,,0.00,0.00,VWS V14.01,2013-11-28 01:15:00,
2013-11-27 18:20:00,34.6,27.5,29.97,North,-999,0.0,0.0,75,0.00,,,0.00,0.00,VWS V14.01,2013-11-28 01:20:00,
2013-11-27 18:25:00,34.3,27.5,29.97,North,-999,0.0,0.0,76,0.00,,,0.00,0.00,VWS V14.01,2013-11-28 01:25:00,
2013-11-27 18:30:00,33.8,27.4,29.97,North,-999,0.0,0.0,77,0.00,,,0.00,0.00,VWS V14.01,2013-11-28 01:30:00,
2013-11-27 18:35:00,33.4,27.0,29.97,North,-999,0.0,0.0,77,0.00,,,0.00,0.00,VWS V14.01,2013-11-28 01:35:00,
2013-11-27 18:40:00,33.2,27.1,29.97,North,-999,0.0,0.0,78,0.00,,,0.00,0.00,VWS V14.01,2013-11-28 01:40:00,
2013-11-27 18:45:00,32.8,27.0,29.97,North,-999,0.0,0.0,79,0.00,,,0.00,0.00,VWS V14.01,2013-11-28 01:45:00,
2013-11-27 18:50:00,32.5,26.7,29.98,North,-999,0.0,0.0,79,0.00,,,0.00,0.00,VWS V14.01,2013-11-28 01:50:00,
2013-11-27 18:55:00,32.3,26.8,29.98,North,-999,0.0,0.0,80,0.00,,,0.00,0.00,VWS V14.01,2013-11-28 01:55:00,
2013-11-27 19:00:00,32.3,26.8,29.98,North,-999,0.0,0.0,80,0.00,,,0.00,0.00,VWS V14.01,2013-11-28 02:00:00,
2013-11-27 19:05:00,32.3,26.8,29.98,North,-999,0.0,0.0,80,0.00,,,0.00,0.00,VWS V14.01,2013-11-28 02:05:00,
2013-11-27 19:10:00,31.8,26.0,29.98,North,-999,0.0,0.0,79,0.00,,,0.00,0.00,VWS V14.01,2013-11-28 02:10:00,
2013-11-27 19:15:00,31.1,25.7,29.98,North,-999,3.0,3.0,80,0.00,,,0.00,0.00,VWS V14.01,2013-11-28 02:15:00,
2013-11-27 19:20:00,30.5,25.4,29.98,North,-999,0.0,4.0,81,0.00,,,0.00,0.00,VWS V14.01,2013-11-28 02:20:00,
2013-11-27 19:25:00,30.4,25.9,29.98,North,-999,0.0,4.0,83,0.00,,,0.00,0.00,VWS V14.01,2013-11-28 02:25:00,
2013-11-27 19:30:00,30.3,25.8,29.98,North,-999,0.0,0.0,83,0.00,,,0.00,0.00,VWS V14.01,2013-11-28 02:30:00,
2013-11-27 19:35:00,30.4,25.9,29.98,North,-999,0.0,0.0,83,0.00,,,0.00,0.00,VWS V14.01,2013-11-28 02:35:00,
2013-11-27 19:40:00,30.6,26.1,29.98,North,-999,0.0,0.0,83,0.00,,,0.00,0.00,VWS V14.01,2013-11-28 02:40:00,
2013-11-27 19:44:00,30.2,25.4,29.98,North,-999,0.0,0.0,82,0.00,,,0.00,0.00,VWS V14.01,2013-11-28 02:44:00,
2013-11-27 19:49:00,28.3,23.2,29.98,North,-999,0.0,4.0,81,0.00,,,0.00,0.00,VWS V14.01,2013-11-28 02:49:00,
2013-11-27 19:54:00,28.4,24.8,29.98,North,-999,0.0,4.0,86,0.00,,,0.00,0.00,VWS V14.01,2013-11-28 02:54:00,
2013-11-27 19:59:00,29.1,25.7,29.98,North,-999,3.0,5.0,87,0.00,,,0.00,0.00,VWS V14.01,2013-11-28 02:59:00,
2013-11-27 20:04:00,29.8,26.4,29.99,North,-999,0.0,5.0,87,0.00,,,0.00,0.00,VWS V14.01,2013-11-28 03:04:00,
2013-11-27 20:09:00,30.4,26.4,29.99,North,-999,0.0,0.0,85,0.00,,,0.00,0.00,VWS V14.01,2013-11-28 03:09:00,
2013-11-27 20:14:00,29.1,24.0,29.99,North,-999,0.0,0.0,81,0.00,,,0.00,0.00,VWS V14.01,2013-11-28 03:14:00,
2013-11-27 20:19:00,28.0,23.8,29.99,North,-999,0.0,0.0,84,0.00,,,0.00,0.00,VWS V14.01,2013-11-28 03:19:00,
2013-11-27 20:24:00,27.7,24.1,29.99,North,-999,0.0,0.0,86,0.00,,,0.00,0.00,VWS V14.01,2013-11-28 03:24:00,
2013-11-27 20:29:00,27.8,23.9,29.99,North,-999,0.0,0.0,85,0.00,,,0.00,0.00,VWS V14.01,2013-11-28 03:29:00,
2013-11-27 20:34:00,27.5,23.6,30.00,North,-999,0.0,0.0,85,0.00,,,0.00,0.00,VWS V14.01,2013-11-28 03:34:00,
2013-11-27 20:39:00,27.5,23.9,30.00,North,-999,0.0,0.0,86,0.00,,,0.00,0.00,VWS V14.01,2013-11-28 03:39:00,
2013-11-27 20:44:00,27.4,23.5,29.99,North,-999,0.0,0.0,85,0.00,,,0.00,0.00,VWS V14.01,2013-11-28 03:44:00,
2013-11-27 20:49:00,27.4,23.5,29.99,North,-999,0.0,0.0,85,0.00,,,0.00,0.00,VWS V14.01,2013-11-28 03:49:00,
2013-11-27 20:54:00,27.5,23.9,29.99,North,-999,0.0,0.0,86,0.00,,,0.00,0.00,VWS V14.01,2013-11-28 03:54:00,
2013-11-27 20:59:00,27.9,24.5,30.00,North,-999,0.0,0.0,87,0.00,,,0.00,0.00,VWS V14.01,2013-11-28 03:59:00,
2013-11-27 21:04:00,28.8,24.6,30.00,North,-999,0.0,0.0,84,0.00,,,0.00,0.00,VWS V14.01,2013-11-28 04:04:00,
2013-11-27 21:09:00,28.4,23.9,30.00,North,-999,0.0,0.0,83,0.00,,,0.00,0.00,VWS V14.01,2013-11-28 04:09:00,
2013-11-27 21:14:00,28.4,24.2,30.00,North,-999,0.0,0.0,84,0.00,,,0.00,0.00,VWS V14.01,2013-11-28 04:14:00,
2013-11-27 21:19:00,28.0,23.8,30.00,North,-999,0.0,0.0,84,0.00,,,0.00,0.00,VWS V14.01,2013-11-28 04:19:00,
2013-11-27 21:24:00,27.8,23.6,29.99,North,-999,0.0,0.0,84,0.00,,,0.00,0.00,VWS V14.01,2013-11-28 04:24:00,
2013-11-27 21:29:00,27.5,25.0,29.99,North,-999,0.0,0.0,90,0.00,,,0.00,0.00,VWS V14.01,2013-11-28 04:29:00,
2013-11-27 21:34:00,27.2,23.3,29.99,North,-999,0.0,0.0,85,0.00,,,0.00,0.00,VWS V14.01,2013-11-28 04:34:00,
2013-11-27 21:39:00,27.3,23.4,29.99,North,-999,0.0,0.0,85,0.00,,,0.00,0.00,VWS V14.01,2013-11-28 04:39:00,
2013-11-27 21:44:00,27.3,23.1,30.00,North,-999,0.0,0.0,84,0.00,,,0.00,0.00,VWS V14.01,2013-11-28 04:44:00,
2013-11-27 21:49:00,27.1,23.2,30.00,North,-999,0.0,0.0,85,0.00,,,0.00,0.00,VWS V14.01,2013-11-28 04:49:00,
2013-11-27 21:54:00,27.0,23.1,30.00,North,-999,0.0,0.0,85,0.00,,,0.00,0.00,VWS V14.01,2013-11-28 04:54:00,
2013-11-27 21:59:00,26.8,22.6,29.99,North,-999,0.0,0.0,84,0.00,,,0.00,0.00,VWS V14.01,2013-11-28 04:59:00,
2013-11-27 22:01:00,26.7,22.8,30.00,North,-999,0.0,0.0,85,0.00,,,0.00,0.00,VWS V14.01,2013-11-28 05:01:00,
2013-11-27 22:06:00,26.4,22.5,30.00,North,-999,0.0,0.0,85,0.00,,,0.00,0.00,VWS V14.01,2013-11-28 05:06:00,
2013-11-27 22:11:00,26.2,22.6,30.00,North,-999,0.0,0.0,86,0.00,,,0.00,0.00,VWS V14.01,2013-11-28 05:11:00,
2013-11-27 22:16:00,26.3,22.7,30.00,North,-999,0.0,0.0,86,0.00,,,0.00,0.00,VWS V14.01,2013-11-28 05:16:00,
2013-11-27 22:21:00,27.0,23.4,30.00,North,-999,0.0,0.0,86,0.00,,,0.00,0.00,VWS V14.01,2013-11-28 05:21:00,
2013-11-27 22:26:00,27.1,23.2,30.00,North,-999,0.0,0.0,85,0.00,,,0.00,0.00,VWS V14.01,2013-11-28 05:26:00,
2013-11-27 22:31:00,27.4,23.5,30.00,North,-999,0.0,0.0,85,0.00,,,0.00,0.00,VWS V14.01,2013-11-28 05:31:00,
2013-11-27 22:36:00,27.5,23.6,30.00,North,-999,0.0,0.0,85,0.00,,,0.00,0.00,VWS V14.01,2013-11-28 05:36:00,
2013-11-27 22:41:00,27.3,23.1,30.00,North,-999,0.0,0.0,84,0.00,,,0.00,0.00,VWS V14.01,2013-11-28 05:41:00,
2013-11-27 22:46:00,27.0,22.8,30.00,North,-999,0.0,0.0,84,0.00,,,0.00,0.00,VWS V14.01,2013-11-28 05:46:00,
2013-11-27 22:51:00,27.3,23.4,30.00,North,-999,0.0,0.0,85,0.00,,,0.00,0.00,VWS V14.01,2013-11-28 05:51:00,
2013-11-27 22:56:00,27.5,23.3,30.00,North,-999,0.0,0.0,84,0.00,,,0.00,0.00,VWS V14.01,2013-11-28 05:56:00,
2013-11-27 23:01:00,27.7,23.8,30.00,North,-999,2.0,5.0,85,0.00,,,0.00,0.00,VWS V14.01,2013-11-28 06:01:00,
2013-11-27 23:06:00,27.9,23.7,30.00,North,-999,0.0,5.0,84,0.00,,,0.00,0.00,VWS V14.01,2013-11-28 06:06:00,
2013-11-27 23:11:00,27.5,22.7,30.00,North,-999,5.0,6.0,82,0.00,,,0.00,0.00,VWS V14.01,2013-11-28 06:11:00,
2013-11-27 23:16:00,26.8,22.3,30.00,North,-999,4.0,6.0,83,0.00,,,0.00,0.00,VWS V14.01,2013-11-28 06:16:00,
2013-11-27 23:21:00,26.0,21.8,30.01,North,-999,3.0,5.0,84,0.00,,,0.00,0.00,VWS V14.01,2013-11-28 06:21:00,
2013-11-27 23:26:00,25.8,21.9,30.01,North,-999,0.0,5.0,85,0.00,,,0.00,0.00,VWS V14.01,2013-11-28 06:26:00,
2013-11-27 23:31:00,25.7,21.8,30.01,North,-999,0.0,0.0,85,0.00,,,0.00,0.00,VWS V14.01,2013-11-28 06:31:00,
2013-11-27 23:36:00,26.1,22.5,30.01,North,-999,0.0,0.0,86,0.00,,,0.00,0.00,VWS V14.01,2013-11-28 06:36:00,
2013-11-27 23:41:00,26.6,23.0,30.01,North,-999,0.0,0.0,86,0.00,,,0.00,0.00,VWS V14.01,2013-11-28 06:41:00,
2013-11-27 23:46:00,26.7,22.8,30.01,North,-999,0.0,0.0,85,0.00,,,0.00,0.00,VWS V14.01,2013-11-28 06:46:00,
2013-11-27 23:51:00,26.7,22.5,30.01,North,-999,0.0,0.0,84,0.00,,,0.00,0.00,VWS V14.01,2013-11-28 06:51:00,
2013-11-27 23:55:00,26.5,22.3,30.01,North,-999,0.0,0.0,84,0.00,,,0.00,0.00,VWS V14.01,2013-11-28 06:55:00,